Location: Limerick
(52.6800°N, 8.6400°W)
Time: 20:39:14
(UTC+00:00)

ISS - All Passes

Search period start: 22 December 2014 00:00
Search period end: 01 January 2015 00:00
Orbit: 404 x 414 km, 51.6° (Epoch: 22 December)

Date Brightness Start Highest point End Pass type
(mag) Time Alt. Az. Time Alt. Az. Time Alt. Az.
22 Dec - 14:12:09 10° SSW 14:14:52 24° SSE 14:17:35 10° E daylight
22 Dec - 15:47:49 10° WSW 15:51:05 63° SSE 15:54:21 10° E daylight
22 Dec - 17:24:18 10° W 17:27:35 70° S 17:30:51 10° ESE visible
22 Dec - 19:00:58 10° W 19:03:53 29° SSW 19:06:47 10° SE visible
23 Dec - 13:22:03 10° S 13:24:14 17° SE 13:26:25 10° ESE daylight
23 Dec - 14:57:05 10° WSW 15:00:19 51° SSE 15:03:32 10° E daylight
23 Dec - 16:33:28 10° W 16:36:46 75° S 16:40:04 10° E daylight
23 Dec - 18:10:03 10° W 18:13:10 40° SSW 18:16:17 10° SE visible
23 Dec - 19:47:53 10° WSW 19:49:06 12° SW 19:50:18 10° SSW visible
24 Dec - 12:32:39 10° SSE 12:33:37 11° SE 12:34:36 10° ESE daylight
24 Dec - 14:06:25 10° SW 14:09:31 39° SSE 14:12:38 10° E daylight
24 Dec - 15:42:37 10° W 15:45:55 75° S 15:49:12 10° E daylight
24 Dec - 17:19:09 10° W 17:22:23 53° SSW 17:25:35 10° ESE visible
24 Dec - 18:56:12 10° W 18:58:28 17° SW 19:00:43 10° S visible
25 Dec - 13:15:51 10° SSW 13:18:44 28° SSE 13:21:38 10° E daylight
25 Dec - 14:51:44 10° WSW 14:55:01 68° S 14:58:19 10° E daylight
25 Dec - 16:28:14 10° W 16:31:31 65° SSW 16:34:47 10° ESE daylight
25 Dec - 18:04:59 10° W 18:07:45 25° SSW 18:10:29 10° SSE visible
26 Dec - 12:25:27 10° SSW 12:27:58 20° SSE 12:30:28 10° E daylight
26 Dec - 14:00:51 10° WSW 14:04:07 57° SSE 14:07:22 10° E daylight
26 Dec - 15:37:17 10° W 15:40:35 73° S 15:43:52 10° E daylight
26 Dec - 17:13:54 10° W 17:16:56 34° SSW 17:19:57 10° SE visible
27 Dec - 11:35:26 10° S 11:37:12 14° SE 11:38:58 10° ESE daylight
27 Dec - 13:10:00 10° SW 13:13:11 45° SSE 13:16:22 10° E daylight
27 Dec - 14:46:18 10° W 14:49:36 76° S 14:52:54 10° E daylight
27 Dec - 16:22:51 10° W 16:26:02 46° SSW 16:29:12 10° SE daylight
27 Dec - 18:00:10 10° WSW 18:02:02 14° SW 18:03:52 10° S visible
28 Dec - 12:19:14 10° SW 12:22:15 33° SSE 12:25:16 10° E daylight
28 Dec - 13:55:17 10° WSW 13:58:35 72° S 14:01:53 10° E daylight
28 Dec - 15:31:48 10° W 15:35:03 59° SSW 15:38:18 10° ESE daylight
28 Dec - 17:08:39 10° W 17:11:13 21° SSW 17:13:45 10° SSE visible
29 Dec - 11:28:36 10° SSW 11:31:19 24° SSE 11:34:04 10° E daylight
29 Dec - 13:04:15 10° WSW 13:07:32 63° SSE 13:10:49 10° E daylight
29 Dec - 14:40:43 10° W 14:44:01 70° S 14:47:18 10° ESE daylight
29 Dec - 16:17:22 10° W 16:20:18 29° SSW 16:23:12 10° SE daylight
30 Dec - 10:38:13 10° S 10:40:25 17° SE 10:42:37 10° ESE daylight
30 Dec - 12:13:14 10° WSW 12:16:28 51° SSE 12:19:42 10° E daylight
30 Dec - 13:49:36 10° W 13:52:55 75° S 13:56:13 10° E daylight
30 Dec - 15:26:10 10° W 15:29:18 40° SSW 15:32:24 10° SE daylight
30 Dec - 17:03:59 10° WSW 17:05:12 12° SW 17:06:24 10° SSW visible
31 Dec - 09:48:31 10° SSE 09:49:31 11° SE 09:50:31 10° ESE daylight
31 Dec - 11:22:17 10° SW 11:25:24 39° SSE 11:28:30 10° E daylight
31 Dec - 12:58:27 10° W 13:01:46 75° S 13:05:04 10° E daylight
31 Dec - 14:34:59 10° W 14:38:13 53° SSW 14:41:26 10° ESE daylight
31 Dec - 16:12:00 10° W 16:14:17 17° SW 16:16:33 10° S daylight
